H1 CPF 2 NER 2024 11 15 9 320 01 glonass137 H2 1705501 9137 42939 2024 11 15 0 0 0 2024 11 18 23 45 0 900 1 1 0 0 0 1 H9 10 0 60629 0.00000 0 -13861953.724 14286500.739 -15953572.781 10 0 60629 900.00000 0 -15473337.166 15132861.473 -13506955.221 10 0 60629 1800.00000 0 -16741845.117 15939406.929 -10798089.838 10 0 60629 2700.00000 0 -17657361.302 16648238.966 -7879602.816 10 0 60629 3600.00000 0 -18222661.842 17202458.947 -4808172.706 10 0 60629 4500.00000 0 -18453071.984 17548699.463 -1643429.359 10 0 60629 5400.00000 0 -18375608.987 17639522.994 1553203.537 10 0 60629 6300.00000 0 -18027648.416 17435586.233 4719699.729 10 0 60629 7200.00000 0 -17455171.033 16907478.643 7794632.157 10 0 60629 8100.00000 0 -16710664.960 16037157.587 10718361.869 10 0 60629 9000.00000 0 -15850772.029 14818919.222 13434191.065 10 0 60629 9900.00000 0 -14933777.747 13259863.904 15889458.090 10 0 60629 10800.00000 0 -14017050.638 11379835.894 18036553.525 10 0 60629 11700.00000 0 -13154538.504 9210839.038 19833838.205 10 0 60629 12600.00000 0 -12394426.609 6795951.822 21246445.964 10 0 60629 13500.00000 0 -11777055.765 4187785.875 22246956.202 10 0 60629 14400.00000 0 -11333187.356 1446550.725 22815923.835 10 0 60629 15300.00000 0 -11082687.816 -1362196.087 22942256.783 10 0 60629 16200.00000 0 -11033687.607 -4170021.577 22623433.885 10 0 60629 17100.00000 0 -11182250.063 -6908211.349 21865558.960 10 0 60629 18000.00000 0 -11512564.250 -9510378.687 20683249.582 10 0 60629 18900.00000 0 -11997654.276 -11914981.564 19099362.081 10 0 60629 19800.00000 0 -12600575.814 -14067643.863 17144557.258 10 0 60629 20700.00000 0 -13276050.250 -15923184.941 14856714.247 10 0 60629 21600.00000 0 -13972468.210 -17447273.419 12280202.925 10 0 60629 22500.00000 0 -14634178.536 -18617636.464 9465028.123 10 0 60629 23400.00000 0 -15203966.277 -19424774.131 6465861.619 10 0 60629 24300.00000 0 -15625614.941 -19872148.977 3340980.390 10 0 60629 25200.00000 0 -15846444.236 -19975843.144 151131.755 10 0 60629 26100.00000 0 -15819715.199 -19763697.648 -3041652.181 10 0 60629 27000.00000 0 -15506799.932 -19273970.553 -6175267.057 10 0 60629 27900.00000 0 -14879022.941 -18553571.230 -9188751.393 10 0 60629 28800.00000 0 -13919094.948 -17655946.006 -12023479.730 10 0 60629 29700.00000 0 -12622077.286 -16638705.282 -14624309.664 10 0 60629 30600.00000 0 -10995834.985 -15561093.180 -16940659.760 10 0 60629 31500.00000 0 -9060958.345 -14481407.307 -18927496.779 10 0 60629 32400.00000 0 -6850155.351 -13454478.113 -20546212.810 10 0 60629 33300.00000 0 -4407139.598 -12529314.493 -21765375.255 10 0 60629 34200.00000 0 -1785059.624 -11747014.988 -22561335.314 10 0 60629 35100.00000 0 955465.289 -11139032.343 -22918683.622 10 0 60629 36000.00000 0 3748621.460 -10725864.076 -22830544.680 10 0 60629 36900.00000 0 6525894.965 -10516223.520 -22298704.947 10 0 60629 37800.00000 0 9218680.370 -10506725.466 -21333572.564 10 0 60629 38700.00000 0 11760896.183 -10682098.822 -19953969.924 10 0 60629 39600.00000 0 14091498.938 -11015916.549 -18186763.349 10 0 60629 40500.00000 0 16156792.166 -11471811.410 -16066337.249 10 0 60629 41400.00000 0 17912435.102 -12005125.690 -13633922.997 10 0 60629 42300.00000 0 19325068.415 -12564924.844 -10936795.565 10 0 60629 43200.00000 0 20373490.340 -13096289.706 -8027353.530 10 0 60629 44100.00000 0 21049335.259 -13542790.256 -4962100.292 10 0 60629 45000.00000 0 21357227.615 -13849036.228 -1800546.399 10 0 60629 45900.00000 0 21314405.959 -13963196.675 1395945.618 10 0 60629 46800.00000 0 20949834.098 -13839381.893 4565351.356 10 0 60629 47700.00000 0 20302837.726 -13439786.955 7646186.316 10 0 60629 48600.00000 0 19421324.740 -12736506.155 10578695.996 10 0 60629 49500.00000 0 18359664.672 -11712941.527 13306011.279 10 0 60629 50400.00000 0 17176316.838 -10364745.653 15775246.836 10 0 60629 51300.00000 0 15931306.970 -8700258.484 17938521.652 10 0 60629 52200.00000 0 14683658.244 -6740418.949 19753882.392 10 0 60629 53100.00000 0 13488884.198 -4518154.014 21186112.266 10 0 60629 54000.00000 0 12396648.243 -2077269.436 22207410.400 10 0 60629 54900.00000 0 11448687.311 529112.978 22797929.103 10 0 60629 55800.00000 0 10677086.120 3240508.062 22946159.075 10 0 60629 56700.00000 0 10102973.853 5991330.316 22649155.294 10 0 60629 57600.00000 0 9735697.543 8713374.816 21912599.160 10 0 60629 58500.00000 0 9572506.656 11338414.368 20750695.338 10 0 60629 59400.00000 0 9598762.149 13800806.284 19185904.670 10 0 60629 60300.00000 0 9788661.426 16040001.445 17248517.479 10 0 60629 61200.00000 0 10106449.050 18002851.944 14976074.605 10 0 60629 62100.00000 0 10508062.574 19645621.644 12412646.390 10 0 60629 63000.00000 0 10943144.429 20935615.945 9607982.769 10 0 60629 63900.00000 0 11357335.024 21852362.654 6616550.316 10 0 60629 64800.00000 0 11694750.086 22388294.437 3496474.616 10 0 60629 65700.00000 0 11900537.013 22548904.182 308408.477 10 0 60629 66600.00000 0 11923401.362 22352366.771 -2885651.624 10 0 60629 67500.00000 0 11717995.541 21828643.350 -6023577.265 10 0 60629 68400.00000 0 11247067.393 21018106.208 -9044323.603 10 0 60629 69300.00000 0 10483276.453 19969742.764 -11889124.076 10 0 60629 70200.00000 0 9410599.736 18739015.069 -14502640.202 10 0 60629 71100.00000 0 8025266.346 17385465.803 -16834043.363 10 0 60629 72000.00000 0 6336180.271 15970172.400 -18838006.930 10 0 60629 72900.00000 0 4364812.450 14553157.146 -20475589.216 10 0 60629 73800.00000 0 2144565.660 13190862.654 -21714990.054 10 0 60629 74700.00000 0 -280361.990 11933799.070 -22532166.532 10 0 60629 75600.00000 0 -2856568.101 10824461.731 -22911296.340 10 0 60629 76500.00000 0 -5523425.808 9895606.281 -22845080.273 10 0 60629 77400.00000 0 -8215370.328 9168952.985 -22334878.532 10 0 60629 78300.00000 0 -10864397.597 8654373.673 -21390678.731 10 0 60629 79200.00000 0 -13402671.556 8349594.417 -20030896.594 10 0 60629 80100.00000 0 -15765132.171 8240425.271 -18282013.524 10 0 60629 81000.00000 0 -17891996.346 8301506.319 -16178058.233 10 0 60629 81900.00000 0 -19731048.314 8497537.588 -13759942.525 10 0 60629 82800.00000 0 -21239624.857 8784940.110 -11074664.172 10 0 60629 83700.00000 0 -22386213.413 9113877.322 -8174392.310 10 0 60629 84600.00000 0 -23151597.294 9430550.892 -5115453.128 10 0 60629 85500.00000 0 -23529501.071 9679673.512 -1957235.607 10 0 60630 0.00000 0 -23526710.179 9807013.805 1238961.032 10 0 60630 900.00000 0 -23162660.631 9761905.532 4411117.419 10 0 60630 1800.00000 0 -22468517.093 9499614.660 7497694.093 10 0 60630 2700.00000 0 -21485778.800 8983464.287 10438823.906 10 0 60630 3600.00000 0 -20264472.395 8186627.191 13177469.401 10 0 60630 4500.00000 0 -18861008.052 7093510.125 15660524.586 10 0 60630 5400.00000 0 -17335788.964 5700670.960 17839839.804 10 0 60630 6300.00000 0 -15750674.386 4017229.364 19673150.351 10 0 60630 7200.00000 0 -14166402.216 2064752.768 21124891.377 10 0 60630 8100.00000 0 -12640078.524 -123378.839 22166883.981 10 0 60630 9000.00000 0 -11222838.439 -2503104.196 22778879.740 10 0 60630 9900.00000 0 -9957775.504 -5021262.529 22948953.586 10 0 60630 10800.00000 0 -8878225.389 -7617561.584 22673737.643 10 0 60630 11700.00000 0 -8006475.091 -10226851.706 21958491.447 10 0 60630 12600.00000 0 -7352951.149 -12781612.949 20817006.846 10 0 60630 13500.00000 0 -6915920.532 -15214553.152 19271348.827 10 0 60630 14400.00000 0 -6681716.552 -17461210.050 17351436.426 10 0 60630 15300.00000 0 -6625480.290 -19462449.831 15094470.947 10 0 60630 16200.00000 0 -6712386.400 -21166758.507 12544221.574 10 0 60630 17100.00000 0 -6899301.687 -22532230.621 9750181.377 10 0 60630 18000.00000 0 -7136806.468 -23528172.067 6766609.466 10 0 60630 18900.00000 0 -7371493.117 -24136249.680 3651477.541 10 0 60630 19800.00000 0 -7548444.148 -24351139.101 465341.225 10 0 60630 20700.00000 0 -7613784.287 -24180643.422 -2729841.465 10 0 60630 21600.00000 0 -7517197.504 -23645277.535 -5871921.012 10 0 60630 22500.00000 0 -7214301.293 -22777335.699 -8899772.262 10 0 60630 23400.00000 0 -6668776.364 -21619481.874 -11754490.684 10 0 60630 24300.00000 0 -5854160.321 -20222922.613 -14380544.873 10 0 60630 25200.00000 0 -4755228.115 -18645240.024 -16726862.122 10 0 60630 26100.00000 0 -3368899.753 -16947976.612 -18747825.375 10 0 60630 27000.00000 0 -1704635.817 -15194074.159 -20404161.894 10 0 60630 27900.00000 0 215696.929 -13445274.625 -21663706.358 10 0 60630 28800.00000 0 2358485.101 -11759592.440 -22502023.758 10 0 60630 29700.00000 0 4679526.611 -10188964.071 -22902880.439 10 0 60630 30600.00000 0 7125639.231 -8777172.996 -22858554.625 10 0 60630 31500.00000 0 9636653.231 -7558136.306 -22369980.972 10 0 60630 32400.00000 0 12147705.553 -6554623.736 -21446726.843 10 0 60630 33300.00000 0 14591740.467 -5777461.570 -20106801.160 10 0 60630 34200.00000 0 16902113.033 -5225253.474 -18376299.850 10 0 60630 35100.00000 0 19015187.447 -4884628.570 -16288894.916 10 0 60630 36000.00000 0 20872822.569 -4731004.926 -13885177.122 10 0 60630 36900.00000 0 22424641.551 -4729835.094 -11211865.057 10 0 60630 37800.00000 0 23629991.471 -4838280.065 -8320895.938 10 0 60630 38700.00000 0 24459511.826 -5007240.097 -5268415.782 10 0 60630 39600.00000 0 24896246.954 -5183655.903 -2113688.659 10 0 60630 40500.00000 0 24936256.621 -5312982.355 1082053.729 10 0 60630 41400.00000 0 24588699.930 -5341729.669 4256799.684 10 0 60630 42300.00000 0 23875389.753 -5219964.309 7348959.148 10 0 60630 43200.00000 0 22829837.043 -4903663.571 10298555.988 10 0 60630 44100.00000 0 21495825.585 -4356824.131 13048387.837 10 0 60630 45000.00000 0 19925577.313 -3553235.180 15545131.131 10 0 60630 45900.00000 0 18177585.213 -2477840.997 17740370.278 10 0 60630 46800.00000 0 16314204.427 -1127634.925 19591531.492 10 0 60630 47700.00000 0 14399102.063 487953.630 21062703.734 10 0 60630 48600.00000 0 12494671.743 2347196.514 22125331.504 10 0 60630 49500.00000 0 10659520.216 4416724.047 22758766.640 10 0 60630 50400.00000 0 8946130.127 6652676.193 22950668.856 10 0 60630 51300.00000 0 7398795.670 9002301.305 22697247.527 10 0 60630 52200.00000 0 6051916.410 11405937.505 22003339.983 10 0 60630 53100.00000 0 4928719.820 13799295.796 20882324.482 10 0 60630 54000.00000 0 4040465.280 16115951.291 19355868.969 10 0 60630 54900.00000 0 3386162.351 18289940.042 17453519.649 10 0 60630 55800.00000 0 2952814.828 20258354.107 15212136.417 10 0 60630 56700.00000 0 2716180.034 21963827.137 12675185.152 10 0 60630 57600.00000 0 2642011.257 23356806.884 9891899.687 10 0 60630 58500.00000 0 2687730.740 24397519.386 6916329.113 10 0 60630 59400.00000 0 2804462.281 25057542.261 3806288.538 10 0 60630 60300.00000 0 2939337.079 25320920.580 622233.623 10 0 60630 61200.00000 0 3037974.553 25184777.957 -2573918.892 10 0 60630 62100.00000 0 3047032.212 24659396.723 -5720001.151 10 0 60630 63000.00000 0 2916715.482 23767763.532 -8754810.343 10 0 60630 63900.00000 0 2603139.965 22544599.443 -11619306.447 10 0 60630 64800.00000 0 2070444.832 21034915.416 -14257767.393 10 0 60630 65700.00000 0 1292566.618 19292154.291 -16618878.437 10 0 60630 66600.00000 0 254597.220 17375997.791 -18656733.924 10 0 60630 67500.00000 0 -1046332.363 15349931.083 -20331731.709 10 0 60630 68400.00000 0 -2600680.872 13278667.453 -21611342.783 10 0 60630 69300.00000 0 -4386654.709 11225541.267 -22470741.352 10 0 60630 70200.00000 0 -6370889.152 9249978.332 -22893283.533 10 0 60630 71100.00000 0 -8509625.030 7405149.162 -22870825.889 10 0 60630 72000.00000 0 -10750332.247 5735902.640 -22403878.163 10 0 60630 72900.00000 0 -13033712.851 4277065.524 -21501587.761 10 0 60630 73800.00000 0 -15296000.568 3052177.649 -20181556.711 10 0 60630 74700.00000 0 -17471461.276 2072714.336 -18469494.964 10 0 60630 75600.00000 0 -19494990.549 1337827.013 -16398716.920 10 0 60630 76500.00000 0 -21304700.335 834611.289 -14009491.025 10 0 60630 77400.00000 0 -22844387.172 538889.699 -11348255.092 10 0 60630 78300.00000 0 -24065779.268 416474.722 -8466712.551 10 0 60630 79200.00000 0 -24930468.979 424857.594 -5420827.159 10 0 60630 80100.00000 0 -25411450.233 515250.613 -2269735.778 10 0 60630 81000.00000 0 -25494197.042 634895.812 925399.602 10 0 60630 81900.00000 0 -25177238.406 729541.775 4102578.179 10 0 60630 82800.00000 0 -24472205.957 745983.410 7200161.824 10 0 60630 83700.00000 0 -23403352.810 634556.901 10158068.359 10 0 60630 84600.00000 0 -22006564.100 351484.155 12918933.506 10 0 60630 85500.00000 0 -20327900.884 -139032.560 15429219.138 10 0 60631 0.00000 0 -18421738.573 -863054.383 17640246.457 10 0 60631 900.00000 0 -16348576.537 -1835562.926 19509135.716 10 0 60631 1800.00000 0 -14172612.632 -3059586.718 20999631.906 10 0 60631 2700.00000 0 -11959179.928 -4525835.873 22082805.003 10 0 60631 3600.00000 0 -9772154.273 -6212860.495 22737608.767 10 0 60631 4500.00000 0 -7671438.901 -8087727.870 22951288.922 10 0 60631 5400.00000 0 -5710630.067 -10107191.586 22719632.874 10 0 60631 6300.00000 0 -3934960.008 -12219305.418 22047056.104 10 0 60631 7200.00000 0 -2379602.046 -14365416.205 20946523.229 10 0 60631 8100.00000 0 -1068407.735 -16482454.143 19439304.720 10 0 60631 9000.00000 0 -13128.072 -18505426.229 17554573.137 10 0 60631 9900.00000 0 786849.177 -20370009.775 15328845.814 10 0 60631 10800.00000 0 1344235.508 -22015138.299 12805283.838 10 0 60631 11700.00000 0 1683062.536 -23385471.911 10032860.013 10 0 60631 12600.00000 0 1837420.814 -24433648.648 7065411.363 10 0 60631 13500.00000 0 1849770.241 -25122221.977 3960594.143 10 0 60631 14400.00000 0 1768893.890 -25425202.518 778761.602 10 0 60631 15300.00000 0 1647582.507 -25329138.470 -2418213.376 10 0 60631 16200.00000 0 1540148.513 -24833688.591 -5568147.299 10 0 60631 17100.00000 0 1499875.823 -23951663.005 -8609762.492 10 0 60631 18000.00000 0 1576514.667 -22708529.671 -11483886.303 10 0 60631 18900.00000 0 1813928.709 -21141407.064 -14134608.905 10 0 60631 19800.00000 0 2247995.298 -19297585.375 -16510376.385 10 0 60631 20700.00000 0 2904848.831 -17232638.539 -18564997.272 10 0 60631 21600.00000 0 3799542.493 -15008206.537 -20258542.611 10 0 60631 22500.00000 0 4935185.833 -12689541.191 -21558122.042 10 0 60631 23400.00000 0 6302595.286 -10342918.347 -22438520.998 10 0 60631 24300.00000 0 7880473.129 -8033024.655 -22882687.011 10 0 60631 25200.00000 0 9636107.942 -5820427.827 -22882056.231 10 0 60631 26100.00000 0 11526567.783 -3759235.444 -22436714.340 10 0 60631 27000.00000 0 13500336.567 -1895039.174 -21555389.256 10 0 60631 27900.00000 0 15499325.676 -263229.010 -20255276.211 10 0 60631 28800.00000 0 17461177.016 1112253.420 -18561698.882 10 0 60631 29700.00000 0 19321761.644 2219671.973 -16507613.358 10 0 60631 30600.00000 0 21017769.840 3059733.557 -14132964.629 10 0 60631 31500.00000 0 22489284.581 3645297.887 -11483908.125 10 0 60631 32400.00000 0 23682231.066 4000573.293 -8611911.401 10 0 60631 33300.00000 0 24550600.003 4159833.928 -5572753.417 10 0 60631 34200.00000 0 25058351.795 4165713.783 -2425440.889 10 0 60631 35100.00000 0 25180922.087 4067150.561 768937.147 10 0 60631 36000.00000 0 24906265.811 3917067.164 3948394.223 10 0 60631 36900.00000 0 24235396.176 3769889.390 7051247.649 10 0 60631 37800.00000 0 23182396.208 3679005.246 10017312.658 10 0 60631 38700.00000 0 21773902.461 3694273.563 12789066.385 10 0 60631 39600.00000 0 20048082.546 3859687.367 15312759.233 10 0 60631 40500.00000 0 18053149.137 4211290.819 17539452.383 10 0 60631 41400.00000 0 15845472.247 4775437.808 19425961.838 10 0 60631 42300.00000 0 13487368.159 5567465.897 20935691.215 10 0 60631 43200.00000 0 11044656.502 6590841.904 22039337.783 10 0 60631 44100.00000 0 8584086.454 7836815.838 22715458.648 10 0 60631 45000.00000 0 6170738.232 9284598.691 22950886.556 10 0 60631 45900.00000 0 3865506.967 10902057.902 22740987.509 10 0 60631 46800.00000 0 1722772.515 12646902.853 22089755.227 10 0 60631 47700.00000 0 -211648.785 14468312.286 21009740.291 10 0 60631 48600.00000 0 -1902186.109 16308937.128 19521814.823 10 0 60631 49500.00000 0 -3324760.592 18107196.330 17654776.422 10 0 60631 50400.00000 0 -4467544.862 19799770.809 15444798.158 10 0 60631 51300.00000 0 -5331204.474 21324191.864 12934734.282 10 0 60631 52200.00000 0 -5928611.641 22621416.058 10173294.278 10 0 60631 53100.00000 0 -6284043.725 23638278.544 7214100.603 10 0 60631 54000.00000 0 -6431900.737 24329721.481 4114648.006 10 0 60631 54900.00000 0 -6414996.468 24660703.249 935184.568 10 0 60631 55800.00000 0 -6282496.128 24607707.282 -2262463.488 10 0 60631 56700.00000 0 -6087588.549 24159786.100 -5416099.848 10 0 60631 57600.00000 0 -5884992.414 23319095.698 -8464374.725 10 0 60631 58500.00000 0 -5728403.232 22100897.009 -11347985.484 10 0 60631 59400.00000 0 -5667990.284 20533023.803 -14010837.010 10 0 60631 60300.00000 0 -5748050.659 18654838.999 -16401138.510 10 0 60631 61200.00000 0 -6004920.695 16515723.076 -18472414.766 10 0 60631 62100.00000 0 -6465234.100 14173157.939 -20184411.872 10 0 60631 63000.00000 0 -7144601.102 11690486.556 -21503879.772 10 0 60631 63900.00000 0 -8046765.043 9134442.162 -22405216.554 10 0 60631 64800.00000 0 -9163272.481 6572550.164 -22870962.378 10 0 60631 65700.00000 0 -10473671.135 4070510.956 -22892133.921 10 0 60631 66600.00000 0 -11946227.727 1689672.301 -22468393.436 10 0 60631 67500.00000 0 -13539135.903 -515304.093 -21608049.633 10 0 60631 68400.00000 0 -15202163.906 -2498485.635 -20327890.819 10 0 60631 69300.00000 0 -16878673.176 -4224337.589 -18652853.861 10 0 60631 70200.00000 0 -18507923.581 -5668949.397 -16615535.596 10 0 60631 71100.00000 0 -20027568.924 -6820769.024 -14255556.235 10 0 60631 72000.00000 0 -21376238.357 -7680816.322 -11618787.173 10 0 60631 72900.00000 0 -22496095.668 -8262368.236 -8756458.174 10 0 60631 73800.00000 0 -23335269.294 -8590130.753 -5724161.240 10 0 60631 74700.00000 0 -23850051.195 -8698933.930 -2580770.587 10 0 60631 75600.00000 0 -24006772.429 -8632006.320 612700.231 10 0 60631 76500.00000 0 -23783276.771 -8438902.672 3794281.780 10 0 60631 77400.00000 0 -23169930.531 -8173173.223 6902249.641 10 0 60631 78300.00000 0 -22170126.208 -7889873.643 9876319.404 10 0 60631 79200.00000 0 -20800258.765 -7643021.190 12658812.613 10 0 60631 80100.00000 0 -19089175.301 -7483104.735 15195771.167 10 0 60631 81000.00000 0 -17077120.904 -7454753.854 17437998.891 10 0 60631 81900.00000 0 -14814224.198 -7594665.344 19342010.575 10 0 60631 82800.00000 0 -12358585.237 -7929874.646 20870870.583 10 0 60631 83700.00000 0 -9774044.628 -8476445.120 21994905.432 10 0 60631 84600.00000 0 -7127725.810 -9238630.696 22692277.121 10 0 60631 85500.00000 0 -4487451.670 -10208547.710 22949406.520 10 0 60632 0.00000 0 -1919141.953 -11366370.432 22761238.947 10 0 60632 900.00000 0 515702.907 -12681043.895 22131346.602 10 0 60632 1800.00000 0 2762324.646 -14111483.792 21071865.926 10 0 60632 2700.00000 0 4774745.738 -15608216.597 19603270.243 10 0 60632 3600.00000 0 6517436.246 -17115390.974 17753981.417 10 0 60632 4500.00000 0 7966541.616 -18573077.877 15559827.132 10 0 60632 5400.00000 0 9110620.530 -19919763.649 13063353.381 10 0 60632 6300.00000 0 9950862.491 -21094932.012 10313004.567 10 0 60632 7200.00000 0 10500776.464 -22041626.549 7362186.510 10 0 60632 8100.00000 0 10785364.165 -22708885.707 4268230.120 10 0 60632 9000.00000 0 10839813.344 -23053947.203 1091275.757 10 0 60632 9900.00000 0 10707766.814 -23044128.109 -2106899.750 10 0 60632 10800.00000 0 10439241.144 -22658300.372 -5264090.094 10 0 60632 11700.00000 0 10088283.892 -21887898.461 -8318876.271 10 0 60632 12600.00000 0 9710469.562 -20737415.671 -11211828.559 10 0 60632 13500.00000 0 9360341.295 -19224367.240 -13886669.430 10 0 60632 14400.00000 0 9088907.657 -17378721.117 -16291373.986 10 0 60632 15300.00000 0 8941301.384 -15241819.778 -18379185.900 10 0 60632 16200.00000 0 8954699.946 -12864837.982 -20109528.728 10 0 60632 17100.00000 0 9156596.418 -10306840.855 -21448794.850 10 0 60632 18000.00000 0 9563494.189 -7632523.407 -22370996.797 10 0 60632 18900.00000 0 10180080.821 -4909725.710 -22858268.742 10 0 60632 19800.00000 0 10998916.109 -2206827.094 -22901208.876 10 0 60632 20700.00000 0 12000647.549 409872.442 -22499056.604 10 0 60632 21600.00000 0 13154744.222 2878675.219 -21659701.607 10 0 60632 22500.00000 0 14420718.324 5144809.139 -20399525.083 10 0 60632 23400.00000 0 15749783.074 7162455.537 -18743076.542 10 0 60632 24300.00000 0 17086877.445 8896398.495 -16722592.660 10 0 60632 25200.00000 0 18372972.809 10323228.349 -14377367.599 10 0 60632 26100.00000 0 19547564.677 11432050.722 -11752987.074 10 0 60632 27000.00000 0 20551244.972 12224673.167 -8900441.029 10 0 60632 27900.00000 0 21328246.782 12715263.278 -5875132.132 10 0 60632 28800.00000 0 21828854.682 12929494.225 -2735799.411 10 0 60632 29700.00000 0 22011579.283 12903215.131 456621.996 10 0 60632 30600.00000 0 21845004.549 12680703.532 3640182.763 10 0 60632 31500.00000 0 21309230.125 12312574.587 6753119.873 10 0 60632 32400.00000 0 20396847.930 11853436.028 9735052.364 10 0 60632 33300.00000 0 19113411.738 11359388.277 12528149.153 10 0 60632 34200.00000 0 17477379.709 10885475.501 15078246.424 10 0 60632 35100.00000 0 15519531.777 10483195.202 17335893.229 10 0 60632 36000.00000 0 13281885.601 10198171.268 19257305.469 10 0 60632 36900.00000 0 10816155.570 10068088.442 20805210.318 10 0 60632 37800.00000 0 8181818.154 10120975.025 21949565.314 10 0 60632 38700.00000 0 5443863.036 10373906.113 22668138.788 10 0 60632 39600.00000 0 2670322.372 10832182.030 22946940.812 10 0 60632 40500.00000 0 -70320.405 11489016.929 22780496.609 10 0 60632 41400.00000 0 -2711735.934 12325751.271 22171957.135 10 0 60632 42300.00000 0 -5192261.378 13312580.194 21133044.436 10 0 60632 43200.00000 0 -7457216.712 14409768.202 19683832.286 10 0 60632 44100.00000 0 -9460929.496 15569300.331 17852365.592 10 0 60632 45000.00000 0 -11168384.575 16736901.480 15674125.032 10 0 60632 45900.00000 0 -12556430.551 17854339.911 13191346.359 10 0 60632 46800.00000 0 -13614493.111 18861918.694 10452206.659 10 0 60632 47700.00000 0 -14344765.746 19701050.427 7509892.693 10 0 60632 48600.00000 0 -14761870.274 20316806.674 4421568.981 10 0 60632 49500.00000 0 -14892001.874 20660334.113 1247265.526 10 0 60632 50400.00000 0 -14771595.187 20691034.664 -1951292.911 10 0 60632 51300.00000 0 -14445568.425 20378416.517 -5111892.730 10 0 60632 52200.00000 0 -13965220.446 19703536.779 -8173048.392 10 0 60632 53100.00000 0 -13385870.632 18659973.630 -11075205.715 10 0 60632 54000.00000 0 -12764342.334 17254285.876 -13761907.269 10 0 60632 54900.00000 0 -12156397.321 15505939.516 -16180896.419 10 0 60632 55800.00000 0 -11614230.619 13446703.566 -18285137.879 10 0 60632 56700.00000 0 -11184132.360 11119539.865 -20033734.597 10 0 60632 57600.00000 0 -10904415.986 8577032.889 -21392723.053 10 0 60632 58500.00000 0 -10803700.575 5879424.896 -22335731.622 10 0 60632 59400.00000 0 -10899619.865 3092338.171 -22844489.599 10 0 60632 60300.00000 0 -11198012.327 284278.989 -22909177.495 10 0 60632 61200.00000 0 -11692626.208 -2475973.089 -22528612.322 10 0 60632 62100.00000 0 -12365351.696 -5121982.513 -21710264.832 10 0 60632 63000.00000 0 -13186970.158 -7592173.482 -20470108.826 10 0 60632 63900.00000 0 -14118388.669 -9832140.362 -18832305.780 10 0 60632 64800.00000 0 -15112307.691 -11796657.737 -16828731.161 10 0 60632 65700.00000 0 -16115251.598 -13451307.692 -14498351.698 10 0 60632 66600.00000 0 -17069876.492 -14773657.856 -11886465.761 10 0 60632 67500.00000 0 -17917458.118 -15753942.562 -9043821.581 10 0 60632 68400.00000 0 -18600455.086 -16395220.220 -6025630.414 10 0 60632 69300.00000 0 -19065039.397 -16713001.845 -2890493.874 10 0 60632 70200.00000 0 -19263487.619 -16734367.827 300733.676 10 0 60632 71100.00000 0 -19156331.910 -16496611.402 3486125.497 10 0 60632 72000.00000 0 -18714180.123 -16045467.035 6603882.575 10 0 60632 72900.00000 0 -17919128.193 -15432999.205 9593530.085 10 0 60632 73800.00000 0 -16765705.054 -14715241.199 12397087.070 10 0 60632 74700.00000 0 -15261309.944 -13949683.768 14960186.752 10 0 60632 75600.00000 0 -13426123.157 -13192719.579 17233126.067 10 0 60632 76500.00000 0 -11292493.187 -12497150.993 19171824.529 10 0 60632 77400.00000 0 -8903824.943 -11909865.859 20738674.369 10 0 60632 78300.00000 0 -6313014.343 -11469778.775 21903266.084 10 0 60632 79200.00000 0 -3580493.202 -11206124.085 22642975.911 10 0 60632 80100.00000 0 -771964.465 -11137172.142 22943404.319 10 0 60632 81000.00000 0 2044079.531 -11269422.735 22798657.284 10 0 60632 81900.00000 0 4798954.085 -11597309.765 22211464.933 10 0 60632 82800.00000 0 7426387.916 -12103429.970 21193135.004 10 0 60632 83700.00000 0 9865030.663 -12759286.757 19763341.478 10 0 60632 84600.00000 0 12060758.913 -13526518.646 17949751.738 10 0 60632 85500.00000 0 13968685.566 -14358561.480 15787498.541 99